Hourly Weather Roundup
Issued by NWS Central Illinois

Home | Current Version | Previous Version | Text Only | Print | Product List | Glossary On
Versions: 1 2 3 4 5 6 7 8 9 10 11 12 13 14 15 16 17 18 19 20 21 22 23 24 25 26 27 28 29 30 31 32 33 34 35 36 37 38 39 40 41 42 43 44 45 46 47 48 49 50
000
NZUS43 KILX 260510
HWRILX

AREA WEATHER ROUNDUP
NATIONAL WEATHER SERVICE, LINCOLN IL
1200 AM CDT SUN APR 26 2015


CITY           SKY/WX    TMP DP  RH WIND       PRES   REMARKS
BLOOMINGTON    CLOUDY    45  42  89 NE14      29.82R
CHAMPAIGN      CLOUDY    45  40  82 NE18      29.78R
DECATUR        CLOUDY    46  42  86 NE17      29.78R
EFFINGHAM      CLOUDY    46  43  88 NE7       29.75R
FLORA          CLOUDY    48  46  90 NE8       29.72R
GALESBURG      CLOUDY    43  38  84 NE10      29.86R
JACKSONVILLE   CLOUDY    48  43  82 NE14G22   29.81R
LACON          CLOUDY    43  35  72 N5        29.85R
LAWRENCEVILLE  CLOUDY    47  45  93 NE17      29.71R FOG
LITCHFIELD     CLOUDY    45  42  90 NE15G23   29.76R
$$


CITY           SKY/WX    TMP DP  RH WIND       PRES   REMARKS
LINCOLN        CLOUDY    47  43  85 NE12      29.80R
MACOMB         CLOUDY    45  41  87 NE13      29.87R
MATTOON        CLOUDY    45  41  86 NE14      29.74R
MT CARMEL AP   CLOUDY    50  45  81 NE13G24   29.70R
OLNEY-NOBLE AP CLOUDY    46  45  93 NE14G20   29.72R
PARIS          CLOUDY    46  43  90 NE8G17    29.76R
PEORIA         CLOUDY    47  40  76 NE10      29.83R
PONTIAC        CLOUDY    44  41  88 NE13      29.84R
RANTOUL        CLOUDY    46  42  85 NE16      29.79R
ROBINSON       CLOUDY    46  45  94 NE17      29.73S
SPRINGFIELD    CLOUDY    48  41  76 NE17G24   29.81R
TAYLORVILLE    CLOUDY    45  41  87 NE14      29.78R
$$

...REGIONAL REPORTS...


CITY           SKY/WX    TMP DP  RH WIND       PRES   REMARKS
CHICAGO O`HARE PTCLDY    41  30  65 N9        29.85R
KANKAKEE       CLOUDY    42  39  89 N7        29.84R
MOLINE         CLOUDY    45  35  68 NE9       29.89R
MOUNT VERNON   CLOUDY    48  43  81 N12G20    29.70S
PITTSFIELD     CLOUDY    48  42  81 NE9G17    29.82R
QUINCY         CLOUDY    47  42  83 NE13      29.82R
ROCKFORD       CLEAR     42  21  43 NE13      29.90S
$$


CITY           SKY/WX    TMP DP  RH WIND       PRES   REMARKS
BURLINGTON     CLOUDY    45  40  82 NE15      29.86R
CEDAR RAPIDS   CLOUDY    46  39  76 NE9       29.90R
DES MOINES     MOCLDY    48  38  68 E9        29.90R
KIRKSVILLE     CLOUDY    48  44  86 NE9       29.85R
OTTUMWA        CLOUDY    46  39  76 NE9       29.88R
ST LOUIS       CLOUDY    50  45  83 N13       29.76R HAZE
$$


CITY           SKY/WX    TMP DP  RH WIND       PRES   REMARKS
TERRE HAUTE    CLOUDY    46  40  79 NE10      29.74R
EVANSVILLE     CLOUDY    51  48  89 N14       29.67R FOG
INDIANAPOLIS   CLOUDY    44  37  76 NE13      29.73R
LAFAYETTE      CLOUDY    43  35  73 E10       29.78R
MADISON        CLEAR     38  25  59 N6        29.92R WCI  33
MILWAUKEE      CLEAR     41  26  55 N13G22    29.89R WCI  34
$$




USA.gov is the U.S. government's official web portal to all federal, state and local government web resources and services.